Content
SEND FEEDBACK

Daily
Averages
Monthly
Summary
United States of America

UPI, GUAM


Home > North America > United States > Guam
Elevation: 53 feet     Latitude: 13 34N     Longitude: 144 55E

WEATHER
 
SELECT A DAY
Number of Records: 208,997;   Date Range: 1/1/95 - 7/26/14
 
SHARE

PRINT THIS DATA

[ ← Previous Day ]
WEATHER ALMANAC - AUGUST 24, 2013
[ Next Day → ]
[ °C ]   °F
Weather ElementAverageHighLow
Temperature80.7 °F88 °F (1:54 pm)75.2 °F (11:24 pm)
Dewpoint75.8 °F79 °F (7:54 am)73.4 °F (11:24 pm)
Humidity85.4 %100 % (2:54 am)67 % (12:54 pm)
Barometer29.85 in29.92 in (11:11 pm)29.79 in (3:54 pm)
Wind Speed6.3 mph18.4 mph (11:11 pm)
Wind Gust26.5 mph (11:11 pm)
Weather ElementAverage
Visibility8.6 mi
Wind DirectionESE (95.9 °)

Weather ElementTotal
Precipitation0.77 in
Cooling Degree Days16.6 (Base 65)
Growing Degree Days31.6 (Base 50)
Averaged from 34 records on August 24, 2013
WEATHER CONDITIONS BREAKOUT
WIND DIRECTION BREAKOUT
WEATHER BY HOUR - AUGUST 24, 2013
[ °C ]   °F
Local TimeTemperatureDewpointHumidityBarometerVisibilityWind DirectionWind SpeedGust SpeedPrecipitationEventsConditions
12:54 AM77.0 °F75.9 °F96 %29.86 in5.0 miSSE (160°)5.8 mph0.04 inRainLight Rain
1:54 AM77.0 °F75.9 °F96 %29.82 in4.0 miCalm0.18 inRainRain
2:46 AM77.0 °F75.2 °F94 %29.84 in1.8 miSE (140°)5.8 mph0.07 inMostly Cloudy
2:54 AM75.9 °F75.9 °F100 %29.82 in3.0 miCalm0.23 inOvercast
3:30 AM77.0 °F75.2 °F94 %29.85 in10.0 miCalmRain-ThunderstormLight Thunderstorms and Rain
3:54 AM77.0 °F75.0 °F94 %29.82 in10.0 miENE (60°)3.5 mphRain-ThunderstormLight Thunderstorms and Rain
4:09 AM77.0 °F75.2 °F94 %29.84 in10.0 miNE (50°)4.6 mph0.00 inScattered Clouds
4:54 AM78.1 °F75.9 °F93 %29.82 in10.0 miESE (120°)3.5 mph0.00 inClear
5:54 AM77.0 °F75.9 °F96 %29.83 in10.0 miNW (320°)3.5 mphClear
6:54 AM77.0 °F77.0 °F100 %29.84 in10.0 miCalmPartly Cloudy
7:54 AM81.0 °F79.0 °F94 %29.86 in10.0 miCalmClear
8:54 AM84.0 °F77.0 °F79 %29.87 in10.0 miVariable4.6 mphMostly Cloudy
9:19 AM82.4 °F77.0 °F84 %29.90 in10.0 miEast (100°)3.5 mphScattered Clouds
9:54 AM84.9 °F77.0 °F77 %29.87 in10.0 miEast (100°)6.9 mphClear
10:54 AM87.1 °F77.0 °F72 %29.85 in10.0 miEast (90°)6.9 mphPartly Cloudy
11:54 AM87.1 °F75.9 °F69 %29.85 in10.0 miESE (110°)8.1 mphPartly Cloudy
12:54 PM87.1 °F75.0 °F67 %29.83 in10.0 miESE (110°)9.2 mphClear
1:54 PM88.0 °F75.9 °F67 %29.81 in10.0 miEast (90°)12.7 mphScattered Clouds
2:54 PM86.0 °F75.9 °F72 %29.80 in10.0 miEast (90°)9.2 mphScattered Clouds
3:54 PM84.9 °F75.9 °F74 %29.79 in10.0 miESE (110°)6.9 mphPartly Cloudy
4:54 PM84.9 °F77.0 °F77 %29.79 in10.0 miEast (90°)8.1 mphScattered Clouds
5:54 PM84.0 °F75.9 °F76 %29.81 in10.0 miEast (90°)10.4 mphScattered Clouds
6:54 PM82.9 °F75.9 °F79 %29.82 in10.0 miEast (90°)11.5 mphScattered Clouds
7:54 PM82.0 °F75.9 °F82 %29.84 in10.0 miEast (90°)6.9 mphScattered Clouds
8:54 PM82.0 °F75.9 °F82 %29.86 in10.0 miEast (100°)6.9 mphScattered Clouds
9:54 PM80.1 °F75.0 °F85 %29.87 in10.0 miEast (100°)4.6 mph0.01 inMostly Cloudy
10:11 PM80.6 °F75.2 °F84 %29.90 in10.0 miEast (100°)9.2 mphMostly Cloudy
10:19 PM80.6 °F75.2 °F84 %29.89 in10.0 miESE (110°)9.2 mphScattered Clouds
10:54 PM82.0 °F75.9 °F82 %29.88 in10.0 miESE (110°)9.2 mphMostly Cloudy
11:11 PM80.6 °F75.2 °F84 %29.92 in4.0 miSE (140°)18.4 mph26.5 mph0.00 inRainHeavy Rain
11:24 PM75.2 °F73.4 °F94 %29.90 in3.0 miSE (130°)8.1 mph21.9 mph0.03 inRainRain
11:29 PM75.2 °F73.4 °F94 %29.89 in4.0 miSE (140°)6.9 mph0.07 inRainHeavy Rain
11:36 PM75.2 °F73.4 °F94 %29.89 in9.0 miSE (140°)6.9 mph0.07 inRainLight Rain
11:54 PM77.0 °F75.9 °F96 %29.87 in9.0 miSouth (180°)3.5 mph0.07 inRainLight Rain
Hourly data recorded from PGUM, located miles away from Upi, Guam







STORIES FROM OUR PARTNERS